[[{"header":{"parameterUnit":"m.s-1","parameterCategory":1,"la1":30.2991,"la2":30.254,"lo1":-89.0895,"lo2":-89.0444,"dy":0.0017,"dx":0.0017,"nx":28,"ny":28,"refTime":"2025-07-20T03:00:00:Z","depth":0,"parameterNumber":2,"parameterNumberName":"U-component_of_WINDS"},"data":[0,0,0,0,0,0,0,0,0,0,0,0,0,0,0,0,0,0,0,0,0,0,0,0,0,0,0,0,0,0,0,0,0,0,0,0,0,0,0,0,0,0,0,0,0,0,0,0,0,0,0,0,0,0,0,0,0,0,0.5727,0.5728,0,0.5822,0.5823,0.5824,0.5871,0.5871,0.5871,0.5871,0.5974,0.5976,0.5979,0,0,0,0,0,0,0,0,0,0,0,0,0,0.5589,0.5591,0.5727,0.5728,0.5729,0.5822,0.5823,0.5825,0.5871,0.5871,0.5871,0.5871,0.5973,0.5976,0.5979,0,0,0,0,0,0,0,0,0,0,0,0,0,0.5663,0.5592,0.5727,0.5764,0.5768,0.5822,0.5823,0.5825,0.5871,0.5871,0.5871,0.5871,0.5972,0.5976,0.598,0.6005,0,0,0.5992,0.5994,0,0,0,0,0,0,0,0,0.5659,0.5668,0.5757,0.5761,0.5766,0.5835,0.5812,0.5886,0.5871,0.5832,0.5871,0.5871,0.5928,0.5935,0.5954,0.601,0.6015,0.5993,0.5995,0.5997,0.5998,0,0,0,0,0,0,0,0.5654,0.5664,0.5765,0.5758,0.5764,0.5777,0.5787,0.5826,0.5879,0.5836,0.5839,0.585,0.593,0.5949,0.5956,0.6016,0.5992,0.5996,0.5999,0.6,0.6099,0.6099,0,0,0,0,0,0,0.5642,0.566,0.5762,0.5768,0.5711,0.5779,0.5791,0.5813,0.5879,0.5889,0.585,0.5852,0.5942,0.5951,0.596,0.5994,0.5997,0.6001,0.6003,0.6098,0.6099,0.6099,0,0,0,0,0,0,0.5639,0.5651,0.5758,0.5715,0.5729,0.5782,0.5806,0.5815,0.5834,0.5889,0.5899,0.5859,0.5943,0.5954,0.5993,0.5999,0.6002,0.6006,0.6098,0.6098,0.6099,0.6063,0,0,0,0,0,0,0.5635,0.5649,0.5659,0.5715,0.5731,0.5788,0.5806,0.5817,0.584,0.5844,0.5901,0.5911,0.5944,0.5987,0.5997,0.6004,0.6009,0.6098,0.6098,0.6099,0.6064,0.6062,0.606,0,0,0,0,0,0.563,0.5646,0.5659,0.5671,0.5744,0.5789,0.5798,0.5835,0.5841,0.5851,0.5886,0.5909,0.5996,0.5991,0.6003,0.6011,0.6098,0.6098,0.6099,0.6065,0.6063,0.606,0,0,0,0,0,0,0.5591,0.5654,0.5669,0.5704,0.574,0.5796,0.5811,0.5831,0.5868,0.587,0.5915,0.5928,0.5963,0.5991,0.5984,0.6039,0.6049,0.6052,0.6019,0.6018,0.6016,0.6009,0.6013,0,0,0,0,0,0.5586,0.5616,0.567,0.5695,0.5713,0.5758,0.5779,0.5804,0.5844,0.586,0.5899,0.5938,0.5974,0.5998,0.6034,0.6068,0.6082,0.608,0.6078,0.6076,0.6078,0.6098,0.6098,0.61,0.61,0.61,0,0,0.5578,0.5616,0.5632,0.5688,0.572,0.575,0.5771,0.5803,0.5826,0.5866,0.5904,0.5934,0.5981,0.6017,0.6035,0.6042,0.6081,0.6077,0.6075,0.6078,0.6099,0.6098,0.6098,0.61,0.61,0.61,0,0,0.5577,0.5608,0.5633,0.5663,0.5709,0.574,0.5745,0.5798,0.5819,0.5858,0.5888,0.5917,0.5979,0.6011,0.6035,0.6046,0.6068,0.6057,0.6047,0.6066,0.6066,0.6066,0.607,0.6071,0.6058,0.6058,0.6058,0,0.556,0.5606,0.5643,0.5673,0.5697,0.5732,0.5758,0.5786,0.5842,0.5859,0.5865,0.5942,0.5977,0.6021,0.6023,0.6042,0.6051,0.6051,0.6063,0.6063,0.6064,0.6068,0.6069,0.6057,0.6057,0.6057,0.6057,0,0.5584,0.5615,0.563,0.5681,0.5707,0.5735,0.5776,0.5799,0.5821,0.585,0.589,0.5932,0.5978,0.599,0.6013,0.6038,0.604,0.6054,0.6065,0.6061,0.6066,0.6068,0.6054,0.6055,0.6055,0.6056,0,0,0.5562,0.5633,0.5638,0.5661,0.5715,0.574,0.577,0.5812,0.583,0.5868,0.5894,0.5945,0.5958,0.5985,0.6012,0.6029,0.6034,0.6041,0.6042,0.6038,0.6064,0.6053,0.6054,0.6049,0.6049,0.6049,0.606,0,0.5569,0.5622,0.5655,0.5695,0.5725,0.5758,0.5784,0.5819,0.5848,0.5878,0.5911,0.5946,0.596,0.5976,0.5994,0.6029,0.604,0.6029,0.6074,0.6075,0.6061,0.6057,0.6046,0.6054,0.6062,0.6062,0.6063,0,0.5585,0.5619,0.5661,0.5711,0.5724,0.5746,0.5788,0.5816,0.5858,0.5878,0.5908,0.5934,0.5968,0.5975,0.6022,0.6014,0.6034,0.6054,0.6056,0.6062,0.6069,0.6063,0.6058,0.6059,0.6066,0.6066,0.6065,0,0.5564,0.5622,0.5655,0.5674,0.5732,0.5747,0.5772,0.5814,0.5837,0.5874,0.589,0.5931,0.5953,0.5984,0.6022,0.6024,0.6065,0.6076,0.6083,0.6082,0.609,0.6089,0.6088,0.6103,0.6103,0.6103,0.6103,0,0.5569,0.5593,0.5646,0.5666,0.5695,0.5733,0.5761,0.5789,0.5826,0.5853,0.5884,0.5909,0.5957,0.5988,0.6017,0.6051,0.6062,0.6079,0.6087,0.6076,0.6074,0.6091,0.6091,0.6103,0.6103,0.6103,0.6103,0,0.5552,0.5588,0.5626,0.5677,0.5691,0.5709,0.5754,0.5776,0.5805,0.5839,0.5849,0.5896,0.5934,0.5974,0.6026,0.6046,0.6079,0.6089,0.6064,0.6068,0.6073,0.6072,0.6083,0.6086,0.6098,0.6098,0.6098,0,0.5552,0.5571,0.5625,0.5644,0.5668,0.5699,0.5723,0.5761,0.5785,0.5833,0.5849,0.5888,0.5922,0.5982,0.6021,0.6061,0.6073,0.6074,0.608,0.6068,0.6073,0.6072,0.6074,0.6072,0.6072,0.6072,0.6072,0,0.5549,0.5566,0.5598,0.5636,0.5662,0.5695,0.5728,0.5743,0.5788,0.5813,0.5851,0.5877,0.5929,0.5969,0.6013,0.6041,0.6064,0.6069,0.6073,0.6063,0.6047,0.6056,0.6059,0.6069,0.6069,0.607,0.607,0.607,0.5541,0.556,0.5599,0.5634,0.5663,0.5693,0.5715,0.5747,0.5779,0.5823,0.5845,0.5883,0.5924,0.5986,0.6012,0.6044,0.605,0.6056,0.6057,0.6058,0.6055,0.6042,0.6052,0.6052,0.6052,0.6052,0.6052,0,0.554,0.5567,0.5598,0.5643,0.567,0.5687,0.5725,0.5747,0.578,0.5816,0.5848,0.5892,0.593,0.5972,0.6012,0.6029,0.6041,0.6039,0.6038,0.6044,0.6047,0.604,0.6029,0.6029,0.6029,0.6029,0.6029,0.6029,0.5542,0.5574,0.5596,0.5642,0.567,0.5706,0.5726,0.5755,0.5783,0.583,0.5861,0.5887,0.5926,0.597,0.6006,0.6017,0.6031,0.6026,0.604,0.6042,0.6044,0.6046,0.6039,0.6028,0.6028,0.6035,0.6035,0.6035]},{"header":{"parameterUnit":"m.s-1","parameterCategory":1,"la1":30.2991,"la2":30.254,"lo1":-89.0895,"lo2":-89.0444,"dy":0.0017,"dx":0.0017,"nx":28,"ny":28,"refTime":"2025-07-20T03:00:00:Z","depth":0,"parameterNumber":3,"parameterNumberName":"V-component_of_WINDS"},"data":[0,0,0,0,0,0,0,0,0,0,0,0,0,0,0,0,0,0,0,0,0,0,0,0,0,0,0,0,0,0,0,0,0,0,0,0,0,0,0,0,0,0,0,0,0,0,0,0,0,0,0,0,0,0,0,0,0,0,2.2862,2.2862,0,2.2858,2.2858,2.2858,2.2859,2.2859,2.286,2.286,2.2854,2.2854,2.2854,0,0,0,0,0,0,0,0,0,0,0,0,0,2.2866,2.2866,2.2862,2.2862,2.2862,2.2858,2.2858,2.2858,2.2859,2.2859,2.286,2.286,2.2854,2.2854,2.2854,0,0,0,0,0,0,0,0,0,0,0,0,0,2.2864,2.2866,2.2862,2.2862,2.2862,2.2858,2.2858,2.2858,2.2859,2.2859,2.286,2.286,2.2854,2.2854,2.2854,2.2849,0,0,2.2853,2.2853,0,0,0,0,0,0,0,0,2.2864,2.2863,2.2862,2.2862,2.2862,2.2859,2.2858,2.2855,2.2859,2.286,2.286,2.286,2.2856,2.2855,2.2854,2.2849,2.2849,2.2853,2.2852,2.2852,2.2852,0,0,0,0,0,0,0,2.2864,2.2864,2.286,2.2862,2.2862,2.2861,2.2861,2.2857,2.2857,2.286,2.286,2.286,2.2856,2.2855,2.2854,2.2849,2.2853,2.2852,2.2852,2.2852,2.2837,2.2836,0,0,0,0,0,0,2.2864,2.2864,2.2861,2.286,2.2863,2.2861,2.2861,2.286,2.2857,2.2857,2.286,2.286,2.2855,2.2855,2.2854,2.2847,2.2852,2.2852,2.2852,2.2837,2.2837,2.2836,0,0,0,0,0,0,2.2865,2.2864,2.2861,2.2862,2.2861,2.2861,2.286,2.286,2.2859,2.2857,2.2857,2.2859,2.2855,2.2854,2.285,2.2847,2.2852,2.2852,2.2837,2.2837,2.2836,2.2834,0,0,0,0,0,0,2.2865,2.2864,2.2864,2.2862,2.2861,2.2858,2.286,2.286,2.2859,2.2859,2.2856,2.2856,2.2855,2.285,2.285,2.2846,2.2851,2.2837,2.2837,2.2837,2.2834,2.2833,2.2833,0,0,0,0,0,2.2865,2.2863,2.2864,2.2863,2.2861,2.2858,2.2857,2.2857,2.2858,2.2857,2.2855,2.2856,2.2847,2.285,2.2849,2.2846,2.2838,2.2837,2.2837,2.2834,2.2834,2.2833,0,0,0,0,0,0,2.2864,2.2863,2.2863,2.2861,2.286,2.2858,2.2856,2.2856,2.2854,2.2854,2.2853,2.2853,2.2848,2.2846,2.2849,2.284,2.2842,2.2842,2.2841,2.284,2.284,2.284,2.2851,0,0,0,0,0,2.2864,2.2862,2.2861,2.2859,2.2858,2.2857,2.2856,2.2856,2.2854,2.2853,2.2851,2.2848,2.2845,2.2842,2.2839,2.2834,2.2832,2.2831,2.283,2.283,2.2829,2.2824,2.2823,2.2835,2.2835,2.2835,0,0,2.2863,2.2862,2.2861,2.2859,2.2858,2.2855,2.2857,2.2854,2.2852,2.2852,2.2848,2.2846,2.2843,2.2837,2.2835,2.2836,2.2825,2.2829,2.2829,2.2828,2.2823,2.2822,2.2821,2.2834,2.2835,2.2835,0,0,2.286,2.286,2.2858,2.2856,2.2854,2.2852,2.2852,2.285,2.2848,2.2844,2.2844,2.284,2.2834,2.2831,2.2829,2.2822,2.2822,2.2821,2.2818,2.2812,2.2811,2.2811,2.2807,2.2805,2.282,2.282,2.282,0,2.2859,2.2856,2.2856,2.2853,2.2851,2.2851,2.2848,2.2846,2.2842,2.284,2.2842,2.2833,2.2831,2.2824,2.2822,2.2821,2.2818,2.2822,2.2812,2.2811,2.281,2.2806,2.2805,2.282,2.282,2.282,2.282,0,2.2854,2.2852,2.285,2.2846,2.2844,2.2841,2.2839,2.2837,2.2836,2.2834,2.2828,2.2825,2.282,2.2819,2.2818,2.2811,2.2811,2.2812,2.2815,2.2809,2.2805,2.2804,2.282,2.282,2.282,2.282,0,0,2.2852,2.2847,2.2847,2.2844,2.2841,2.2838,2.2834,2.2829,2.2826,2.2823,2.2818,2.2812,2.2813,2.281,2.2809,2.2805,2.2797,2.2806,2.2806,2.2803,2.2786,2.2785,2.2783,2.2797,2.2796,2.2796,2.2786,0,2.2848,2.2842,2.284,2.2834,2.283,2.2829,2.2825,2.2822,2.2819,2.2815,2.2812,2.2807,2.2809,2.2807,2.2802,2.2799,2.2793,2.28,2.2791,2.279,2.2791,2.2781,2.278,2.2771,2.2784,2.2784,2.2784,0,2.2843,2.284,2.2833,2.2828,2.2826,2.2823,2.2817,2.2813,2.2808,2.2807,2.2802,2.2801,2.2795,2.2797,2.2787,2.2792,2.2788,2.2785,2.2785,2.2783,2.2787,2.2779,2.2768,2.2766,2.2782,2.2782,2.2782,0,2.2841,2.2834,2.2829,2.2827,2.2821,2.2818,2.2815,2.2811,2.2807,2.2802,2.2799,2.2793,2.2789,2.2784,2.278,2.2783,2.277,2.2773,2.2767,2.2767,2.2764,2.2764,2.2751,2.2763,2.2763,2.2763,2.2763,0,2.2836,2.2832,2.2827,2.2824,2.2818,2.2816,2.2809,2.2806,2.2802,2.2796,2.2795,2.279,2.2786,2.2779,2.2776,2.2767,2.2766,2.2763,2.2762,2.2763,2.2763,2.276,2.276,2.2763,2.2763,2.2763,2.2763,0,2.2833,2.283,2.2823,2.2818,2.2816,2.2812,2.2807,2.2802,2.2799,2.2792,2.279,2.2785,2.2777,2.2773,2.2764,2.2761,2.2751,2.2751,2.2753,2.2752,2.2746,2.2746,2.273,2.2727,2.2742,2.2741,2.2741,0,2.283,2.2826,2.282,2.2816,2.2813,2.2808,2.2804,2.2801,2.2796,2.2789,2.2785,2.2777,2.2771,2.2758,2.2752,2.2744,2.2743,2.2738,2.2742,2.2742,2.2742,2.2742,2.274,2.2738,2.2737,2.2737,2.2737,0,2.2824,2.2822,2.2817,2.2811,2.2806,2.2801,2.2796,2.2793,2.2788,2.2783,2.2775,2.277,2.2759,2.2751,2.2742,2.2738,2.2736,2.2736,2.2734,2.2734,2.2735,2.2733,2.275,2.2736,2.2736,2.2737,2.2737,2.2737,2.282,2.2816,2.281,2.2804,2.28,2.2794,2.2789,2.2785,2.2778,2.277,2.2768,2.2759,2.2751,2.2739,2.2734,2.2726,2.2727,2.2724,2.2723,2.2723,2.2721,2.2737,2.2724,2.2724,2.2724,2.2724,2.2724,0,2.2814,2.281,2.2804,2.2796,2.279,2.2789,2.2783,2.2778,2.277,2.2763,2.2757,2.2746,2.2737,2.273,2.2721,2.2715,2.2714,2.2713,2.2713,2.2711,2.2722,2.2724,2.2714,2.2714,2.2714,2.2714,2.2714,2.2714,2.281,2.2802,2.2799,2.2788,2.2784,2.2775,2.2771,2.2765,2.276,2.2748,2.2741,2.2736,2.2729,2.2718,2.2709,2.2707,2.2703,2.2702,2.2699,2.271,2.2711,2.2712,2.2714,2.2701,2.2701,2.2689,2.2689,2.2689]}]]